Flag for French Polynesia Weather past 2 weeks in Papeete, Tahiti, French Polynesia

Now
75 °F

Partly sunny.


Feels Like: 74 °F
Forecast: 76 / 85 °F
Wind: 3 mph from South

Location: Tahiti-Faaa

Current Time: Oct 22, 2014 at 6:28:30 AM

Latest Report: Oct 22, 2014 at 6:00 AM


Visibility: N/A

Pressure: 29.86 "Hg

Humidity: 94%

Dew point: 73 °F

Location of PapeeteLocation

Historic Weather in Papeete — Graph

°F

Papeete temperature yesterday

Maximum temperature yesterday: 81 °F (at 11:30 AM)
Minimum temperature yesterday: 73 °F (at 4:30 AM)
Average temperature yesterday: 77 °F

Past Weeks' High & Low Weather Summary

 TemperatureHumidityPressure
High86 °F (Oct 7, 11:00 AM)94% (Oct 15, 11:30 PM)30.01 "Hg (Oct 15, 11:30 PM)
Low70 °F (Oct 11, 1:30 AM)51% (Oct 11, 9:30 AM)29.80 "Hg (Oct 21, 3:00 PM)
Average79 °F74%29.91 "Hg
* Reported Oct 7 5:00 AM — Oct 22 5:30 AM, Papeete, Weather by CustomWeather, © 2014

Note: Actual official high and low records may vary slightly from our data, if they occured in-between our weather recording intervals... More about our weather records

Advertising

Papeete weather history for previous 24 hours

 ConditionsComfort  
Time TempWeatherWind HumidityBarometerVisibility
5:30 AM
Oct 22
75 °FOvercast.3 mph94%29.86 "HgN/A
5:00 AM75 °FOvercast.3 mph89%29.86 "HgN/A
4:30 AM75 °FMostly cloudy.No wind89%29.83 "HgN/A
4:00 AM75 °FPartly cloudy.2 mph89%29.83 "HgN/A
3:30 AM75 °FLight rain. Mostly cloudy.6 mph89%29.83 "Hg6 mi
3:00 AM75 °FScattered showers. Partly cloudy.9 mph89%29.83 "HgN/A
2:30 AM75 °FPartly cloudy.5 mph83%29.83 "HgN/A
2:00 AM75 °FPassing clouds.8 mph83%29.83 "HgN/A
1:30 AM75 °FPassing clouds.3 mph89%29.83 "HgN/A
1:00 AM75 °FPartly cloudy.7 mph89%29.86 "HgN/A
12:30 AM75 °FPartly cloudy.6 mph89%29.86 "HgN/A
12:00 AM75 °FPartly cloudy.7 mph89%29.86 "HgN/A
11:30 PM
Oct 21
75 °FRain. Partly cloudy.7 mph89%29.89 "HgN/A
11:00 PM75 °FPartly cloudy.2 mph89%29.89 "HgN/A
10:30 PM75 °FPartly cloudy.3 mph94%29.89 "HgN/A
10:00 PM75 °FLight rain. Partly cloudy.5 mph94%29.89 "HgN/A
9:30 PM75 °FPartly cloudy.2 mph94%29.89 "HgN/A
9:00 PM75 °FMostly cloudy.5 mph94%29.89 "HgN/A
8:30 PM75 °FOvercast.7 mph94%29.89 "HgN/A
8:00 PM75 °FPartly cloudy.7 mph94%29.89 "HgN/A
7:30 PM75 °FPartly cloudy.6 mph94%29.86 "HgN/A
7:00 PM75 °FLight rain. Partly cloudy.8 mph94%29.89 "Hg4 mi
6:30 PM77 °FLight rain. Partly cloudy.13 mph89%29.86 "HgN/A
6:00 PM77 °FRain. Partly cloudy.12 mph83%29.86 "HgN/A
5:30 PM77 °FScattered showers. Broken clouds.13 mph83%29.83 "HgN/A
5:00 PM79 °FScattered showers. Broken clouds.15 mph79%29.83 "HgN/A
4:30 PM79 °FScattered showers. Partly sunny.14 mph79%29.83 "HgN/A
4:00 PM81 °FScattered showers. Partly sunny.14 mph74%29.83 "HgN/A
3:30 PM81 °FScattered showers. Partly sunny.13 mph74%29.80 "HgN/A
3:00 PM81 °FScattered showers. Partly sunny.12 mph74%29.80 "HgN/A
2:30 PM81 °FScattered showers. Partly sunny.12 mph74%29.83 "HgN/A
2:00 PM81 °FScattered showers. Broken clouds.8 mph74%29.83 "HgN/A
1:30 PM81 °FScattered showers. Broken clouds.6 mph74%29.83 "HgN/A
1:00 PM81 °FScattered showers. Broken clouds.6 mph74%29.86 "HgN/A
12:30 PM81 °FScattered showers. Broken clouds.2 mph70%29.86 "HgN/A
12:00 PM79 °FScattered showers. Broken clouds.7 mph74%29.86 "HgN/A
11:30 AM81 °FScattered showers. Broken clouds.6 mph74%29.89 "HgN/A
11:00 AM79 °FScattered showers. Broken clouds.5 mph79%29.89 "HgN/A
10:34 AM79 °FBroken clouds.5 mph79%29.89 "HgN/A
10:04 AM77 °FScattered showers. Broken clouds.3 mph83%29.92 "Hg6 mi
9:30 AM75 °FScattered showers. Broken clouds.7 mph89%29.92 "Hg6 mi
9:00 AM75 °FScattered showers. Broken clouds.8 mph89%29.92 "Hg6 mi
8:37 AM75 °FScattered showers. Broken clouds.9 mph83%29.92 "HgN/A
8:00 AM75 °FScattered showers. Broken clouds.9 mph83%29.92 "HgN/A
7:30 AM73 °FScattered showers. Broken clouds.10 mph89%29.89 "HgN/A
7:00 AM73 °FScattered showers. Broken clouds.9 mph89%29.89 "HgN/A
6:30 AM73 °FSprinkles. Partly sunny.9 mph89%29.89 "Hg4 mi
6:00 AM75 °FScattered showers. Partly sunny.3 mph89%29.89 "Hg6 mi
Weather by CustomWeather, © 2014

See weather overviewHow to use our weather pages